Location: Freemans Gardens
(41.6414°N, 83.6077°W)
Time: 21:58:41
(UTC+00:00)

USA 308 - Pass Details

Date: 29 October 2020
Orbit: 571 x 578 km, 54.0° (Epoch: 23 November)

Event Time Altitude Azimuth Distance (km) Brightness Sun altitude
Rises 23:31:15 0° 312° (NW) 2,786 7.0 -11.6°
Reaches altitude 10° 23:33:40 10° 321° (NW) 1,884 6.0 -12.0°
Maximum altitude 23:37:37 36° 29° (NNE) 922 3.7 -12.8°
Enters shadow 23:39:53 21° 82° (E) 1,312 4.1 -13.2°
